Location: Firdgum
(53.2488°N, 5.5615°E)
Time: 19:47:14
(UTC+00:00)

STARLINK 1053 - Pass Details

Date: 08 December 2019
Orbit: 548 x 551 km, 53.0° (Epoch: 18 January)

Event Time Altitude Azimuth Distance (km) Brightness Sun altitude
Exits shadow 03:46:16 20° 103° (ESE) 1,351 6.2 -33.3°
Drops below altitude 10° 03:47:40 10° 102° (ESE) 1,893 7.1 -33.1°
Enters shadow 04:47:03 -64° 295° (WNW) 12,079 10.4 -24.2°
